Regional Weather Roundup
Issued by NWS

Home | Current Version | Previous Version | Text Only | Print | Product List | Glossary On
Versions: 1 2 3 4 5 6 7 8 9 10 11 12 13 14 15 16 17 18 19 20 21 22 23 24 25 26 27 28 29 30 31 32 33 34 35 36 37 38 39 40 41 42 43 44 45 46 47 48 49 50
000
ASUS43 KMPX 020810
RWRMN
WEATHER ROUNDUP FOR MINNESOTA
NATIONAL WEATHER SERVICE TWIN CITIES/CHANHASSEN MN
300 AM CDT SAT AUG 02 2014


NOTE: "FAIR" INDICATES FEW OR NO CLOUDS BELOW 12,000 FEET WITH NO
SIGNIFICANT WEATHER AND/OR OBSTRUCTIONS TO VISIBILITY. N/A MEANS
CURRENT SKY AND/OR WEATHER CONDITIONS ARE NOT AVAILABLE.

MNZ060>063-068>070-020900-
   Twin Cities Metro

CITY           SKY/WX    TMP DP  RH WIND       PRES   REMARKS
TWIN CITIES    CLEAR     69  63  81 CALM      30.09R
ST PAUL        CLEAR     64  63  96 CALM      30.10R FOG
CRYSTAL        CLEAR     65  60  84 CALM      30.08R HAZE
BLAINE         CLEAR     64  63  94 CALM      30.09R FOG
LAKEVILLE      CLEAR     61  59  94 CALM      30.10R
EDEN PRAIRIE   CLEAR     65  63  93 SW3       30.09R
SOUTH ST PAUL  CLEAR     65  62  93 CALM      30.10R FOG
LAKE ELMO      FAIR      59  59 100 CALM      30.11R FOG
$$
MNZ001>005-007-008-013>017-022>024-027-028-020900-
   Northwest Minnesota

CITY           SKY/WX    TMP DP  RH WIND       PRES   REMARKS
BEMIDJI        CLEAR     50  48  94 CALM      30.11S FOG
HALLOCK        CLEAR     61  57  88 S6        30.06S
ROSEAU         CLEAR     59  54  82 S5        30.07F
WARROAD        CLEAR     61  52  72 S6        30.08S
THIEF RVR FALL CLEAR     57  55  94 CALM      30.09F
CROOKSTON      CLEAR     59  57  94 CALM      30.09S
FOSSTON        HAZE      54  48  82 CALM      30.11S VSB 1/2
DETROIT LAKES  CLEAR     61  59  94 E3        30.12F
MOORHEAD       CLEAR     61  61 100 CALM      30.08F
PARK RAPIDS    CLEAR     55  53  93 CALM      30.11S
$$
MNZ006-009>011-018-025>026-020900-
   North Central Minnesota

CITY           SKY/WX    TMP DP  RH WIND       PRES   REMARKS
BAUDETTE       CLEAR     54  48  80 CALM      30.09F
FLAG ISLAND    PTCLDY    66  61  82 SW9       30.05S
INTL FALLS     CLEAR     45  44  97 CALM      30.09S
WASKISH        CLEAR     50  48  93 CALM      30.10S
BIG FORK       CLEAR     48  46  93 N2        30.11S
LONGVILLE      CLEAR     54  54 100 CALM      30.10S FOG
GRAND RAPIDS   MOCLDY    57  55  94 CALM      30.11S
CRANE LAKE     CLEAR     46  45  93 CALM      30.12S
ORR            CLEAR     46  45  93 CALM      30.09S
COOK           CLEAR     46  46 100 CALM      30.12R
$$
MNZ012-019>021-037-020900-
   Northeast Minnesota

CITY           SKY/WX    TMP DP  RH WIND       PRES   REMARKS
DULUTH         CLEAR     55  50  83 E6        30.12R
ELY            CLEAR     48  46  93 CALM      30.12S
HIBBING        FOG       50  48  93 CALM      30.12S VSB 3/4
EVELETH        CLEAR     52  52 100 CALM      30.13R
DULUTH HARBOR  CLEAR     57  54  88 NE7       30.12S
TWO HARBORS    CLEAR     50  46  87 CALM      30.10S
SILVER BAY     CLEAR     46  46 100 CALM      30.10S
GRAND MARAIS     N/A     51  49  92 NW3       30.10F
G MARAIS ARPRT CLEAR     45  41  87 CALM      30.14S
$$
MNZ029>031-032-039>041-046>048-054>057-064-020900-
   West Central Minnesota

CITY           SKY/WX    TMP DP  RH WIND       PRES   REMARKS
FERGUS FALLS   CLEAR     63  55  77 E6        30.10S
WHEATON        CLEAR     61  57  88 CALM      30.11R FOG
MORRIS         CLEAR     57  57 100 CALM      30.09S FOG
ALEXANDRIA     CLEAR     64  62  93 CALM      30.12S FOG
ELBOW LAKE     FAIR      66  61  84 CALM      30.10S
WADENA         CLEAR     55  54  94 CALM      30.11S
GLENWOOD       CLEAR     63  61  94 CALM      30.12R
APPLETON       CLEAR     63  59  88 CALM      30.09S
BENSON         FOG       57  57 100 CALM      30.10S VSB 1
ORTONVILLE     CLEAR     64  57  77 CALM      30.09R
MADISON        CLEAR     63  61  94 SW5       30.10R
WILLMAR        FAIR      63  57  82 CALM      30.12R
$$
MNZ033>034-036-042>043-049>051-058-059-020900-
   Central Minnesota

CITY           SKY/WX    TMP DP  RH WIND       PRES   REMARKS
ST CLOUD       CLOUDY    61  58  90 CALM      30.09S FOG
SAUK CENTRE    FAIR      58  57  96 CALM      30.11S FOG
PAYNESVILLE      N/A     56  56 100 CALM      30.11S FOG
AITKIN           N/A     55  48  76 CALM      30.10S HAZE
PINE RIVER     CLEAR     54  54 100 CALM      30.14S FOG
BRAINERD       PTCLDY    57  56  96 CALM      30.11S FOG
STAPLES        PTCLDY    59  57  94 CALM      30.11S
LONG PRAIRIE   FAIR      55  55 100 CALM      30.12R
LITTLE FALLS   FOG       55  54  94 CALM      30.11R VSB 3/4
LITCHFIELD       N/A     66  64  94 CALM      30.11R
BUFFALO        CLEAR     64  61  90 CALM      30.11R
MAPLE LAKE     CLEAR     63  61  95 CALM      30.11R
$$
MNZ037-044-045-052-053-020900-
   East Central Minnesota

CITY           SKY/WX    TMP DP  RH WIND       PRES   REMARKS
PRINCETON      CLEAR     61  59  94 CALM      30.10S FOG
MORA           CLEAR     55  55 100 CALM      30.12R FOG
CAMBRIDGE      HAZE      61  54  77 CALM      30.08S VSB 1
RUSH CITY      PTCLDY    59  57  95 CALM      30.10S
MOOSE LAKE     CLEAR     54  50  87 NE3       30.10R
HINCKLEY       FAIR      61  61 100 CALM      30.11R FOG
CLOQUET        CLEAR     54  50  87 CALM      30.12R
MCGREGOR       CLEAR     54  52  94 CALM      30.12S
$$
MNZ071>073-080-081-089-090-097-098-020900-
   Southwest Minnesota

CITY           SKY/WX    TMP DP  RH WIND       PRES   REMARKS
MONTEVIDEO     CLEAR     64  57  77 W3        30.11R
GRANITE FALLS  CLEAR     60  58  94 SW6       30.12R
CANBY          CLEAR     67  58  75 SW3       30.12S
MARSHALL       CLEAR     63  57  82 SW7       30.11R
REDWOOD FALLS  CLEAR     65  59  81 SW7       30.10S
OLIVIA         CLEAR     63  57  82 CALM      30.10R
PIPESTONE      MOCLDY    63  57  82 S3        30.14S
WINDOM         CLEAR     61  57  88 CALM      30.14R
WORTHINGTON    PTCLDY    57  54  88 SW3       30.16R
JACKSON        CLEAR     59  55  88 CALM      30.14S
TRACY          CLEAR     66  58  75 SW7       30.13R
SLAYTON        PTCLDY    61  56  85 CALM      30.15S
$$
MNZ065>067-074>077-082>085-091>093-020900-
   South Central Minnesota

CITY           SKY/WX    TMP DP  RH WIND       PRES   REMARKS
MANKATO        CLEAR     64  57  77 S5        30.11S
NEW ULM        CLEAR     63  61  94 SW5       30.10F
ST JAMES       CLEAR     63  57  82 CALM      30.12F
FAIRMONT       CLEAR     57  54  88 CALM      30.12F
GLENCOE        CLEAR     64  59  85 CALM      30.10R
FARIBAULT      CLEAR     64  57  77 CALM      30.12R
OWATONNA       PTCLDY    63  57  82 CALM      30.12S
WASECA         CLEAR     59  54  82 CALM      30.13S
ALBERT LEA     CLEAR     61  59  94 CALM      30.12F FOG
$$
MNZ078>079-086>088-094>096-020900-
   Southeast Minnesota

CITY           SKY/WX    TMP DP  RH WIND       PRES   REMARKS
ROCHESTER      CLEAR     61  56  83 SW7       30.13S
RED WING       CLEAR     63  61  94 CALM      30.09R FOG
STANTON        CLEAR     63  58  86 S3        30.10R
DODGE CENTER   PTCLDY    63  57  82 SW6       30.12S
WINONA         CLEAR     66  61  82 CALM      30.10S
AUSTIN         CLEAR     59  57  94 CALM      30.12S
PRESTON        CLEAR     61  60  97 S7        30.13S
$$
ABBREVIATIONS USED IN REMARKS
   TC - TEMPERATURES IN CELSIUS
  WCI - WIND CHILL INDEX
   HX - HEAT INDEX
  VSB - VISIBILITY
$$



USA.gov is the U.S. government's official web portal to all federal, state and local government web resources and services.